Details for Ryanair at ESGG




Go Back


Latest METAR
Local Time

ESGG 221020Z 25017KT 9999 SHRA FEW032 SCT051 12/05 Q1002
22/09/2018, 12:46:37

Description
Results
Ryanair Logo
Number of Pilots based at ESGG
0 Pilots Based here
Number of Ryanair Flights Departed from ESGG
0 Flights Departed
Number of Ryanair Flights Arrived at ESGG
0 Flights Arrived
Number of Ryanair Schedules Departing from ESGG
19 Schedules
Number of Ryanair Schedules Arriving at ESGG
19 Schedules
Number of Ryanair Schedules Departing from ESGG availible today
4 Schedules Today
Number of Ryanair Schedules Arriving at ESGG availible today
4 Schedules Today
Average Landing Rate at ESGG
-344 fpm
Ryanair Average Landing Rate at ESGG
0 fpm
Total Fuel Purchased at ESGG by Ryanair
0.00 kgs / 0.00 lbs

Pilots Based at ESGG


Pilot ID
Pilot Name
Pilot Rank
No. of Flights
No. of Flying Hours
There are no pilots assigned to this hub!   Will you be the first?
Content